Weather History for Bentonville, AR

Change the Weather History Date:

Tuesday, January 1, 2013

  Actual Average Record
Temperature  
Mean Temperature 30 °F -  
Max Temperature 37 °F 41 °F 68 °F (1952)
Min Temperature 24 °F 20 °F -3 °F (1977)
Degree Days  
Heating Degree Days 34    
Moisture  
Dew Point 29 °F    
Average Humidity 88    
Maximum Humidity 93    
Minimum Humidity 80    
Precipitation  
Precipitation 0.00 in - - ()
Sea Level Pressure  
Sea Level Pressure 30.13 in    
Wind  
Wind Speed 6 mph (North)    
Max Wind Speed 13 mph    
Max Gust Speed -    
Visibility 4 miles    
Events      
Averages and records for this station are not official NWS values.
T = Trace of Precipitation, MM = Missing Value Source: NWS Daily Summary

Daily Weather History Graph

Daily Weather History Graph

Search for Another Location

Airport:

Trip Planner

Search our weather history database for the weather conditions in past years. The results will help you decide how hot, cold, wet, or windy it might be!

Date:

Astronomy

Jan. 01, 2013 Rise Set
Actual Time 7:28 AM CST 5:12 PM CST
Civil Twilight 6:59 AM CST 5:41 PM CST
Nautical Twilight 6:27 AM CST 6:13 PM CST
Astronomical Twilight 5:56 AM CST 6:45 PM CST
Moon 9:36 PM CST (1/1) 9:48 AM CST (1/1)
Length of Visible Light 10h 41m
Length of Day
9h 44m
Waning Gibbous, 83% of the Moon is Illuminated
Jan 1
Waning Gibbous
Jan 4
Last Quarter
Jan 11
New
Jan 18
First Quarter
Jan 26
Full

Hourly Weather History & Observations

Time (CST) Temp. Windchill Dew Point Humidity Pressure Visibility Wind Dir Wind Speed Gust Speed Precip Events Conditions
12:15 AM 37.4 °F 32.8 °F 35.6 °F 93% 30.03 in 1.8 mi NW 5.8 mph - N/A   Overcast
12:55 AM 37.4 °F 33.8 °F 35.6 °F 93% 30.02 in 2.5 mi NNW 4.6 mph - N/A   Overcast
1:15 AM 37.4 °F 32.8 °F 35.6 °F 93% 30.02 in 3.0 mi NW 5.8 mph - N/A   Overcast
1:35 AM 37.4 °F 34.9 °F 35.6 °F 93% 30.02 in 3.0 mi NNW 3.5 mph - N/A   Overcast
1:55 AM 37.4 °F 33.8 °F 35.6 °F 93% 30.02 in 5.0 mi NNW 4.6 mph - N/A   Overcast
2:35 AM 37.4 °F 32.8 °F 33.8 °F 87% 30.02 in 4.0 mi North 5.8 mph - N/A   Overcast
2:55 AM 37.4 °F 34.9 °F 33.8 °F 87% 30.02 in 3.0 mi NNW 3.5 mph - N/A   Overcast
3:15 AM 37.4 °F 33.8 °F 35.6 °F 93% 30.02 in 5.0 mi NNW 4.6 mph - N/A   Overcast
3:35 AM 37.4 °F 34.9 °F 33.8 °F 87% 30.03 in 7.0 mi North 3.5 mph - N/A   Overcast
3:55 AM 37.4 °F 33.8 °F 33.8 °F 87% 30.02 in 7.0 mi North 4.6 mph - N/A   Overcast
4:15 AM 37.4 °F 31.4 °F 33.8 °F 87% 30.02 in 8.0 mi North 8.1 mph - N/A   Overcast
5:15 AM 35.6 °F 32.8 °F 33.8 °F 93% 30.06 in 2.5 mi North 3.5 mph - N/A   Overcast
5:35 AM 35.6 °F 31.7 °F 33.8 °F 93% 30.07 in 2.0 mi North 4.6 mph - N/A   Overcast
5:55 AM 35.6 °F 30.7 °F 33.8 °F 93% 30.06 in 1.5 mi North 5.8 mph - N/A   Overcast
6:15 AM 35.6 °F 29.9 °F 33.8 °F 93% 30.08 in 1.0 mi North 6.9 mph - N/A   Overcast
6:55 AM 35.6 °F 29.9 °F 32.0 °F 87% 30.09 in 1.2 mi NNE 6.9 mph - N/A   Overcast
7:15 AM 35.6 °F 27.5 °F 32.0 °F 87% 30.09 in 1.2 mi North 11.5 mph - N/A   Overcast
7:35 AM 33.8 °F 26.4 °F 32.0 °F 93% 30.08 in 1.8 mi NNE 9.2 mph - N/A   Overcast
7:55 AM 33.8 °F 24.8 °F 30.2 °F 87% 30.06 in 1.2 mi NNE 12.7 mph - N/A   Overcast
8:15 AM 33.8 °F 24.8 °F 30.2 °F 87% 30.08 in 1.0 mi NNE 12.7 mph - N/A   Overcast
8:35 AM 33.8 °F 25.3 °F 30.2 °F 87% 30.10 in 0.8 mi NNE 11.5 mph - N/A   Overcast
8:55 AM 33.8 °F 27.0 °F 30.2 °F 87% 30.13 in 2.0 mi North 8.1 mph - N/A   Overcast
9:15 AM 33.8 °F 27.7 °F 30.2 °F 87% 30.12 in 0.5 mi North 6.9 mph - N/A   Overcast
9:35 AM 33.8 °F 27.0 °F 30.2 °F 87% 30.14 in 1.2 mi North 8.1 mph - N/A   Overcast
9:55 AM 33.8 °F 28.6 °F 30.2 °F 87% 30.15 in 1.8 mi NE 5.8 mph - N/A   Overcast
10:15 AM 33.8 °F 27.7 °F 30.2 °F 87% 30.15 in 1.5 mi NE 6.9 mph - N/A   Overcast
10:35 AM 33.8 °F 27.0 °F 30.2 °F 87% 30.16 in 1.2 mi North 8.1 mph - N/A   Overcast
10:55 AM 33.8 °F 27.0 °F 30.2 °F 87% 30.17 in 1.0 mi North 8.1 mph - N/A   Overcast
11:35 AM 32.0 °F 25.6 °F 30.2 °F 93% 30.16 in 1.2 mi North 6.9 mph - N/A   Overcast
11:55 AM 32.0 °F 24.2 °F 30.2 °F 93% 30.14 in 1.2 mi North 9.2 mph - N/A   Overcast
12:15 PM 32.0 °F 24.8 °F 28.4 °F 87% 30.13 in 1.8 mi North 8.1 mph - N/A   Overcast
12:35 PM 32.0 °F 24.2 °F 28.4 °F 87% 30.13 in 2.0 mi North 9.2 mph - N/A   Overcast
1:35 PM 30.2 °F 21.9 °F 28.4 °F 93% 30.14 in 1.5 mi North 9.2 mph - N/A   Overcast
1:55 PM 30.2 °F 22.6 °F 26.6 °F 86% 30.14 in 2.0 mi North 8.1 mph - N/A   Overcast
2:15 PM 30.2 °F 21.9 °F 26.6 °F 86% 30.15 in 2.0 mi North 9.2 mph - N/A   Overcast
2:35 PM 30.2 °F 21.3 °F 26.6 °F 86% 30.16 in 2.0 mi North 10.4 mph - N/A   Overcast
3:15 PM 30.2 °F 21.9 °F 26.6 °F 86% 30.16 in 3.0 mi North 9.2 mph - N/A   Overcast
3:35 PM 30.2 °F 21.9 °F 26.6 °F 86% 30.16 in 2.5 mi North 9.2 mph - N/A   Mostly Cloudy
4:35 PM 30.2 °F 23.4 °F 26.6 °F 86% 30.18 in 5.0 mi North 6.9 mph - N/A   Overcast
4:55 PM 30.2 °F 22.6 °F 26.6 °F 86% 30.18 in 5.0 mi North 8.1 mph - N/A   Overcast
5:15 PM 28.4 °F 21.2 °F 24.8 °F 86% 30.17 in 5.0 mi North 6.9 mph - N/A   Overcast
5:35 PM 28.4 °F 21.2 °F 24.8 °F 86% 30.18 in 7.0 mi North 6.9 mph - N/A   Overcast
6:15 PM 28.4 °F 22.2 °F 24.8 °F 86% 30.19 in 7.0 mi North 5.8 mph - N/A   Overcast
6:35 PM 28.4 °F 23.3 °F 24.8 °F 86% 30.19 in 6.0 mi North 4.6 mph - N/A   Overcast
6:55 PM 28.4 °F 23.3 °F 24.8 °F 86% 30.19 in 6.0 mi North 4.6 mph - N/A   Overcast
7:15 PM 28.4 °F 23.3 °F 24.8 °F 86% 30.20 in 6.0 mi North 4.6 mph - N/A   Overcast
7:55 PM 28.4 °F 22.2 °F 24.8 °F 86% 30.22 in 7.0 mi NNW 5.8 mph - N/A   Overcast
8:15 PM 28.4 °F 22.2 °F 24.8 °F 86% 30.22 in 7.0 mi NNW 5.8 mph - N/A   Overcast
8:35 PM 28.4 °F 20.4 °F 23.0 °F 80% 30.20 in 8.0 mi North 8.1 mph - N/A   Overcast
8:55 PM 26.6 °F 20.0 °F 23.0 °F 86% 30.19 in 8.0 mi North 5.8 mph - N/A   Overcast
9:35 PM 26.6 °F 21.2 °F 23.0 °F 86% 30.21 in 8.0 mi North 4.6 mph - N/A   Overcast
9:55 PM 26.6 °F 20.0 °F 23.0 °F 86% 30.21 in 7.0 mi North 5.8 mph - N/A   Overcast
10:15 PM 26.6 °F 21.2 °F 23.0 °F 86% 30.21 in 7.0 mi NNW 4.6 mph - N/A   Overcast
10:35 PM 26.6 °F 20.0 °F 23.0 °F 86% 30.22 in 6.0 mi NNW 5.8 mph - N/A   Overcast
11:15 PM 24.8 °F 16.9 °F 21.2 °F 86% 30.20 in 5.0 mi North 6.9 mph - N/A   Overcast
11:35 PM 24.8 °F 17.9 °F 21.2 °F 86% 30.20 in 5.0 mi North 5.8 mph - N/A   Overcast
11:55 PM 24.8 °F 20.5 °F 21.2 °F 86% 30.21 in 5.0 mi NNW 3.5 mph - N/A   Overcast